Regional Weather Roundup
Issued by NWS Columbia, SC

Home | Current Version | Previous Version | Text Only | Print | Product List | Glossary On
Versions: 1 2 3 4 5 6 7 8 9 10 11 12 13 14 15 16 17 18 19 20 21 22 23 24 25 26 27 28
000
ASUS42 KCAE 292010
RWRCAE
REGIONAL WEATHER ROUNDUP
NATIONAL WEATHER SERVICE COLUMBIA SC
400 PM EDT SUN MAY 29 2016

NOTE: "FAIR" INDICATES FEW OR NO CLOUDS BELOW 12,000 FEET WITH NO
SIGNIFICANT WEATHER AND/OR OBSTRUCTIONS TO VISIBILITY.

NOT ALL STATIONS ARE QUALITY CONTROLLED BY THE NATIONAL
WEATHER SERVICE. USE DATA WITH CAUTION...ESPECIALLY
DEWPOINT OBSERVATIONS.

SCZ001>056-GAZ040-063>065-077-292100-
...UPSTATE SOUTH CAROLINA...

CITY           SKY/WX    TMP DP  RH WIND       PRES   REMARKS
ANDERSON       LGT RAIN  73  60  63 N6        30.09F
LIBERTY        LGT RAIN  73  64  75 CALM      30.11R
SPARTANBURG    CLOUDY    73  59  60 N14G21    30.08F
CLEMSON        CLOUDY    73  64  73 CALM      30.11S
GREENVILLE     CLOUDY    72  58  61 NE7       30.11F
GREENWOOD      CLOUDY    76  61  59 N10       30.07F
GREER          CLOUDY    74  61  63 N9        30.09F
ROCK HILL      CLOUDY    76  63  64 N14       30.06F
CHESTER        MOCLDY    77  61  57 N17G23    30.05F
LAURENS        CLOUDY    72  63  73 N9        30.07F


...CENTRAL SOUTH CAROLINA...

CITY           SKY/WX    TMP DP  RH WIND       PRES   REMARKS
COLUMBIA APT   CLOUDY    78  65  63 N17G26    29.97S
COLUMBIA OWENS CLOUDY    76  66  71 VRB6G20   29.98S
MCENTIRE ANGB  HVY RAIN  73  69  87 N15G29    29.95F FOG
ORANGEBURG     HVY RAIN  71  69  93 N12       29.93S FOG
SUMTER SHAW    LGT RAIN  73  70  88 N12       29.92F
NEWBERRY       CLOUDY    75  66  73 N15G21    30.07F
AIKEN          TSTM      70  64  83 N16G25    30.03F
MANNING        FAIR      79  70  73 SE7G16    29.90S
LANCASTER      CLOUDY    77  68  73 N12       30.03F
WINNSBORO      CLOUDY    72  66  83 N13       30.01F


...EASTERN AND COASTAL SOUTH CAROLINA...

CITY           SKY/WX    TMP DP  RH WIND       PRES   REMARKS
MYRTLE BEACH   PTSUNNY   79  66  65 SE10      29.98S
N MYRTLE BCH   CLOUDY    79  72  79 S10       29.97S
CONWAY         CLOUDY    77  70  78 SE10      29.96S
MARION         FAIR      81  68  65 SE15G23   29.95S
HARTSVILLE     CLOUDY    75  70  83 N10G20    29.95F
FLORENCE       PTSUNNY   82  73  74 E10       29.93F
DARLINGTON     HVY RAIN  73  72  94 N18       29.95F FOG
CHARLESTON APT PTSUNNY   79  67  66 CALM      29.89S
MOUNT PLEASANT CLOUDY    73  72  94 CALM      29.90S FOG
WALTERBORO     CLOUDY    72  72 100 E5        29.90R
BEAUFORT       LGT RAIN  69  66  90 W17G28    29.89F FOG


...EASTERN GEORGIA...

CITY           SKY/WX    TMP DP  RH WIND       PRES   REMARKS
AUGUSTA BUSH F CLOUDY    75  64  68 N15G25    29.99F
AUGUSTA DANIEL CLOUDY    75  64  68 NW14      30.01F
THOMSON        CLOUDY    76  65  68 NW7G16    30.09F
WASHINGTON     DRIZZLE   75  70  83 N5        30.07F
CLAXTON        FAIR      74  65  74 W13       30.03F
SYLVANIA       RAIN      68  66  92 NW10      30.00S
STATESBORO     RAIN      68  67  96 NW7       30.01F
SAVANNAH       CLOUDY    67  63  87 W18       29.99F


...SOUTHERN NORTH CAROLINA...

CITY           SKY/WX    TMP DP  RH WIND       PRES   REMARKS
CHARLOTTE      CLOUDY    77  62  59 N8        30.08S
MONROE         CLOUDY    76  64  66 NE14G22   30.04F
WADESBORO      HVY RAIN  75  65  72 N9        30.03S
ROCKINGHAM     LGT RAIN  74  72  91 N12G17    30.00F
RUTHERFORDTON  LGT RAIN  70  67  90 E3        30.13F
ASHEVILLE      PTSUNNY   73  55  53 VRB3      30.14F

$$




USA.gov is the U.S. government's official web portal to all federal, state and local government web resources and services.